Flag for Switzerland Weather past 2 weeks in Altdorf, Uri, Switzerland

Now
43 °F

Partly sunny.


Feels Like: 43 °F
Forecast: 36 / 42 °F
Wind: 2 mph from Southwest

Location: Altdorf

Current Time: Mar 31, 2015 at 9:10:11 AM

Latest Report: Mar 31, 2015 at 8:00 AM


Visibility: 9 mi

Pressure: 29.85 "Hg

Humidity: 93%

Dew point: 41 °F

Location of AltdorfLocation

Historic Weather in Altdorf — Graph

°F

Altdorf temperature yesterday

Maximum temperature yesterday: 57 °F (at 2:00 PM)
Minimum temperature yesterday: 47 °F (at 6:00 AM)
Average temperature yesterday: 50 °F

Past Weeks' High & Low Weather Summary

 TemperatureHumidityPressure
High63 °F (Mar 17, 12:00 PM)96% (Mar 29, 4:00 AM)30.33 "Hg (Mar 29, 4:00 AM)
Low33 °F (Mar 28, 7:00 AM)31% (Mar 16, 11:00 AM)29.58 "Hg (Mar 25, 2:00 PM)
Average48 °F70%30.02 "Hg
* Reported Mar 16 6:00 AM — Mar 31 7:00 AM, Altdorf, Weather by CustomWeather, © 2015

Note: Actual official high and low records may vary slightly from our data, if they occured in-between our weather recording intervals... More about our weather records

Advertising

Altdorf weather history for previous 24 hours

 ConditionsComfort  
Time TempWeatherWind HumidityBarometerVisibility
7:00 AM
Tue, Mar 31
45 °FCool.3 mph91%29.88 "HgN/A
6:00 AM44 °FQuite cool.1 mph91%29.91 "HgN/A
5:00 AM45 °FLight rain. Overcast.3 mph90%29.94 "Hg5 mi
4:00 AM44 °FQuite cool.8 mph88%29.98 "HgN/A
3:00 AM44 °FQuite cool.12 mph88%30.03 "HgN/A
2:00 AM44 °FRain. Overcast.10 mph89%30.05 "Hg5 mi
1:00 AM45 °FCool.13 mph90%30.06 "HgN/A
12:00 AM46 °FCool.3 mph87%30.05 "HgN/A
11:00 PM
Mon, Mar 30
47 °FRain. Overcast.6 mph79%30.03 "Hg5 mi
10:00 PM50 °FCool.13 mph64%30.01 "HgN/A
9:00 PM50 °FCool.21 mph72%29.96 "HgN/A
8:00 PM53 °FLight rain. Overcast.21 mph57%29.92 "Hg5 mi
7:00 PM52 °FCool.26 mph67%29.90 "HgN/A
6:00 PM52 °FCool.28 mph71%29.87 "HgN/A
5:00 PM50 °FRain. Overcast.32 mph80%29.84 "Hg5 mi
4:00 PM53 °FCool.29 mph76%29.79 "HgN/A
3:00 PM57 °FRefreshingly cool.25 mph56%29.75 "HgN/A
2:00 PM57 °FLight rain. Overcast.25 mph59%29.73 "Hg12 mi
1:00 PM56 °FCool.24 mph61%29.73 "HgN/A
12:00 PM51 °FCool.6 mph84%29.74 "HgN/A
11:00 AM49 °FLight rain. Overcast.6 mph88%29.76 "Hg9 mi
10:00 AM48 °FCool.No wind92%29.76 "HgN/A
9:00 AM47 °FCool.2 mph93%29.76 "HgN/A
Weather by CustomWeather, © 2015

See weather overviewHow to use our weather pages